Location: Unspecified
(0.0000°N, 0.0000°E)
Time: 15:54:18
(UTC+00:00)

Explorer 11/Cluster Stage 4 - Visible Passes

Search period start: 29 April 2016 00:00
Search period end: 09 May 2016 00:00
Orbit: 467 x 1266 km, 28.8° (Epoch: 28 April)

Date Brightness Start Highest point End Pass type
(mag) Time Alt. Az. Time Alt. Az. Time Alt. Az.
29 Apr 9.4 03:18:32 12° SSE 03:18:32 12° SSE 03:19:02 10° SE visible
29 Apr 8.9 05:00:48 10° SW 05:02:02 11° SSW 05:03:26 10° SSW visible
03 May 9.5 20:51:35 10° N 20:51:56 11° N 20:51:56 11° N visible
04 May 9.3 20:41:40 10° N 20:42:46 13° N 20:42:46 13° N visible
05 May 9.1 20:31:49 10° NNW 20:33:39 16° N 20:33:39 16° N visible
06 May 8.8 20:22:03 10° NNW 20:24:33 19° N 20:24:33 19° N visible
07 May 8.5 20:12:21 10° NNW 20:15:29 24° N 20:15:29 24° N visible
08 May 8.1 20:02:41 10° NNW 20:06:28 29° N 20:06:28 29° N visible
